Location: Ajisawe
(8.4333°N, 4.3833°E)
Time: 13:03:23
(UTC+00:00)

Transit 4A - Pass Details

Date: 28 April 2021
Orbit: 870 x 974 km, 66.8° (Epoch: 05 May)

Event Time Altitude Azimuth Distance (km) Brightness Sun altitude
Rises 20:47:29 0° 226° (SW) 3,658 11.2 -41.5°
Reaches altitude 10° 20:50:32 10° 239° (WSW) 2,704 10.6 -42.2°
Enters shadow 20:51:45 15° 247° (WSW) 2,377 10.3 -42.5°
Exits shadow 20:58:12 19° 327° (NNW) 2,102 10.1 -43.8°
Drops below altitude 10° 21:00:31 10° 345° (NNW) 2,662 10.6 -44.3°
Sets 21:03:31 0° 359° (N) 3,588 11.3 -45.0°
